Weather in Ternovka

Russia / Saratov Oblast     51°19′32″N   42°55′32″E
temp.,
°C
wind,
m/s
gust,
m/s
humid.,
%
clouds,
%
prec.,
mm/h
press.,
hPa
HPBL,
m
26 july, mon
mon2601:00+16e335740 0.0 102331
04:00+16ese22595 0.0 102312
07:00+17ne236096 0.0 102481
10:00+23e22415 0.0 1024835
13:00+26ene223363 0.0 10242621
16:00+26e223038 0.0 10222498
19:00+25ese3538100 0.0 1022239
22:00+21nne34415 0.0 102359
27 july, tue
tue2701:00+17ese33510 0.0 102342
04:00+16sse22510 0.0 102313
07:00+18sw11535 0.0 102337
10:00+24wnw22386 0.0 1023653
13:00+27nw243199 0.0 10212840
16:00+27nnw343399 0.0 10202394
19:00+24ese12467 0.0 102059
22:00+22nw22504 0.0 102023
28 july, wed
wed2801:00+18nne22580 0.0 102011
04:00+17nnw11604 0.0 101911
07:00+19wnw11615 0.0 101938
10:00+25sw22415 0.0 1018647
13:00+28wsw3434100 0.0 10172897
16:00+28s233534 0.0 10162062
19:00+27sse223999 0.0 1015178
22:00+23sse354727 0.0 101581
29 july, thu
thu2901:00+21s47516 0.0 1014118
04:00+20s31046100 0.0 1012196
07:00+21wsw4949100 0.0 1012238
10:00+22wsw5117298 1.5 1012626
13:00+29wsw794450 0.5 10102129
16:00+31wnw783480 0.5 10093058
19:00+27wnw7848100 0.1 10101070
22:00+23w4760100 0.1 1010144
30 july, fri
fri3001:00+21w347150 0.0 101167
04:00+21w346970 0.0 101186
07:00+21wnw25695 0.0 1012132
10:00+27wnw34480 0.0 1012901
13:00+30wnw34360 0.0 10122101
16:00+32wnw45300 0.0 10112699
19:00+31nnw343442 0.0 1010394
22:00+24e335327 0.0 101238